Time,TemperatureF,DewpointF,PressureIn,WindDirection,WindDirectionDegrees,WindSpeedMPH,WindSpeedGustMPH,Humidity,HourlyPrecipIn,Conditions,Clouds,dailyrainin,SolarRadiationWatts/m^2,SoftwareType,DateUTC
2013-02-14 00:00:00,29.9,27.6,29.67,South,183,0.0,0.0,91,0.00,-SN,,0.00,0.0,WeatherDisplay:10.37,2013-02-14 06:00:00,
2013-02-14 00:05:00,30.1,27.8,29.67,South,174,1.0,1.0,91,0.00,-SN,,0.00,0.0,WeatherDisplay:10.37,2013-02-14 06:05:00,
2013-02-14 00:10:00,30.3,28.0,29.67,SSE,157,0.0,0.0,91,0.00,-SN,,0.00,0.0,WeatherDisplay:10.37,2013-02-14 06:10:00,
2013-02-14 00:15:00,30.4,28.1,29.67,ENE,57,2.3,2.3,91,0.00,-SN,,0.00,0.0,WeatherDisplay:10.37,2013-02-14 06:15:00,
2013-02-14 00:20:00,30.5,28.2,29.67,ENE,59,0.0,0.0,91,0.00,-SN,,0.00,0.0,WeatherDisplay:10.37,2013-02-14 06:20:00,
2013-02-14 00:25:00,30.5,28.2,29.67,NE,51,1.1,0.0,91,0.00,-SN,,0.00,0.0,WeatherDisplay:10.37,2013-02-14 06:25:00,
2013-02-14 00:30:00,30.5,27.9,29.67,NE,51,1.1,1.1,90,0.00,-SN,,0.00,0.0,WeatherDisplay:10.37,2013-02-14 06:30:00,
2013-02-14 00:35:00,30.3,27.7,29.68,ENE,58,1.1,1.1,90,0.00,-SN,,0.00,0.0,WeatherDisplay:10.37,2013-02-14 06:35:00,
2013-02-14 00:40:00,30.2,27.6,29.68,NE,56,0.0,0.1,90,0.00,-SN,,0.00,0.0,WeatherDisplay:10.37,2013-02-14 06:40:00,
2013-02-14 00:45:00,29.9,27.1,29.68,NE,43,3.5,3.5,89,0.00,-SN,,0.00,0.0,WeatherDisplay:10.37,2013-02-14 06:45:00,
2013-02-14 00:50:00,29.7,26.9,29.68,NE,46,1.1,1.1,89,0.00,-SN,,0.00,0.0,WeatherDisplay:10.37,2013-02-14 06:50:00,
2013-02-14 00:55:00,29.5,26.9,29.68,NE,51,0.0,0.0,90,0.00,-SN,,0.00,0.0,WeatherDisplay:10.37,2013-02-14 06:55:00,
2013-02-14 01:00:00,29.3,26.7,29.68,East,88,2.0,2.0,90,0.00,-SN,,0.00,0.0,WeatherDisplay:10.37,2013-02-14 07:00:00,
2013-02-14 01:05:00,29.2,26.6,29.68,East,88,0.0,0.0,90,0.00,-SN,,0.00,0.0,WeatherDisplay:10.37,2013-02-14 07:05:00,
2013-02-14 01:10:00,29.0,26.4,29.68,East,80,1.1,1.1,90,0.00,-SN,,0.00,0.0,WeatherDisplay:10.37,2013-02-14 07:10:00,
2013-02-14 01:15:00,28.8,26.0,29.68,ENE,60,1.1,1.1,89,0.00,-SN,,0.00,0.0,WeatherDisplay:10.37,2013-02-14 07:15:00,
2013-02-14 01:20:00,28.8,25.7,29.67,ENE,72,3.5,3.5,88,0.00,OVC,,0.00,0.0,WeatherDisplay:10.37,2013-02-14 07:20:00,
2013-02-14 01:25:00,28.7,25.6,29.68,East,82,2.0,2.0,88,0.00,OVC,,0.00,0.0,WeatherDisplay:10.37,2013-02-14 07:25:00,
2013-02-14 01:30:00,28.7,25.3,29.67,East,82,4.6,4.6,87,0.00,OVC,,0.00,0.0,WeatherDisplay:10.37,2013-02-14 07:30:00,
2013-02-14 01:35:00,28.6,25.2,29.67,East,86,2.3,2.3,87,0.00,OVC,,0.00,0.0,WeatherDisplay:10.37,2013-02-14 07:35:00,
2013-02-14 01:40:00,28.6,25.2,29.68,East,84,1.1,1.1,87,0.00,OVC,,0.00,0.0,WeatherDisplay:10.37,2013-02-14 07:40:00,
2013-02-14 01:45:00,28.6,25.2,29.68,East,84,1.1,1.1,87,0.00,OVC,,0.00,0.0,WeatherDisplay:10.37,2013-02-14 07:45:00,
2013-02-14 01:50:00,28.6,25.2,29.68,ENE,75,0.0,0.0,87,0.00,OVC,,0.00,0.0,WeatherDisplay:10.37,2013-02-14 07:50:00,
2013-02-14 01:55:00,28.6,24.9,29.68,ENE,75,0.0,0.0,86,0.00,OVC,,0.00,0.0,WeatherDisplay:10.37,2013-02-14 07:55:00,
2013-02-14 02:00:00,28.5,24.6,29.68,ENE,69,3.5,3.5,85,0.00,OVC,,0.00,0.0,WeatherDisplay:10.37,2013-02-14 08:00:00,
2013-02-14 02:05:00,28.4,24.5,29.68,NNE,33,1.1,1.3,85,0.00,OVC,,0.00,0.0,WeatherDisplay:10.37,2013-02-14 08:05:00,
2013-02-14 02:10:00,28.3,24.4,29.68,NE,56,3.5,3.5,85,0.00,OVC,,0.00,0.0,WeatherDisplay:10.37,2013-02-14 08:10:00,
2013-02-14 02:15:00,28.3,24.4,29.68,East,87,2.3,2.3,85,0.00,OVC,,0.00,0.0,WeatherDisplay:10.37,2013-02-14 08:15:00,
2013-02-14 02:20:00,28.2,24.3,29.68,ENE,77,2.3,2.3,85,0.00,OVC,,0.00,0.0,WeatherDisplay:10.37,2013-02-14 08:20:00,
2013-02-14 02:25:00,28.2,24.6,29.68,ENE,77,0.0,0.0,86,0.00,OVC,,0.00,0.0,WeatherDisplay:10.37,2013-02-14 08:25:00,
2013-02-14 02:30:00,28.2,24.6,29.68,ENE,77,0.0,0.0,86,0.00,OVC,,0.00,0.0,WeatherDisplay:10.37,2013-02-14 08:30:00,
2013-02-14 02:35:00,28.2,24.6,29.68,ENE,76,0.0,0.0,86,0.00,OVC,,0.00,0.0,WeatherDisplay:10.37,2013-02-14 08:35:00,
2013-02-14 02:40:00,28.2,24.6,29.69,ENE,67,1.1,1.1,86,0.00,OVC,,0.00,0.0,WeatherDisplay:10.37,2013-02-14 08:40:00,
2013-02-14 02:45:00,28.2,24.6,29.68,ENE,67,0.0,0.0,86,0.00,OVC,,0.00,0.0,WeatherDisplay:10.37,2013-02-14 08:45:00,
2013-02-14 02:50:00,28.2,24.6,29.69,ENE,67,0.0,0.0,86,0.00,OVC,,0.00,0.0,WeatherDisplay:10.37,2013-02-14 08:50:00,
2013-02-14 02:55:00,28.2,24.3,29.69,East,83,3.5,3.5,85,0.00,OVC,,0.00,0.0,WeatherDisplay:10.37,2013-02-14 08:55:00,
2013-02-14 03:00:00,28.2,24.3,29.69,ENE,69,1.0,1.0,85,0.00,OVC,,0.00,0.0,WeatherDisplay:10.37,2013-02-14 09:00:00,
2013-02-14 03:05:00,28.2,24.3,29.69,East,90,1.1,1.1,85,0.00,OVC,,0.00,0.0,WeatherDisplay:10.37,2013-02-14 09:05:00,
2013-02-14 03:10:00,28.1,24.2,29.69,East,79,2.3,2.3,85,0.00,OVC,,0.00,0.0,WeatherDisplay:10.37,2013-02-14 09:10:00,
2013-02-14 03:15:00,28.0,24.1,29.69,ENE,67,1.1,1.1,85,0.00,OVC,,0.00,0.0,WeatherDisplay:10.37,2013-02-14 09:15:00,
2013-02-14 03:20:00,28.0,24.1,29.69,ENE,67,1.1,0.0,85,0.00,OVC,,0.00,0.0,WeatherDisplay:10.37,2013-02-14 09:20:00,
2013-02-14 03:25:00,27.9,24.0,29.69,East,92,1.1,0.0,85,0.00,OVC,,0.00,0.0,WeatherDisplay:10.37,2013-02-14 09:25:00,
2013-02-14 03:30:00,27.8,23.9,29.69,NE,34,2.3,0.0,85,0.00,OVC,,0.00,0.0,WeatherDisplay:10.37,2013-02-14 09:30:00,
2013-02-14 03:35:00,27.8,23.9,29.69,NE,42,1.1,1.1,85,0.00,OVC,,0.00,0.0,WeatherDisplay:10.37,2013-02-14 09:35:00,
2013-02-14 03:44:00,27.7,23.8,29.69,East,89,0.0,0.4,85,0.00,OVC,,0.00,0.0,WeatherDisplay:10.37,2013-02-14 09:44:00,
2013-02-14 03:49:00,27.7,23.8,29.69,East,89,0.0,0.0,85,0.00,OVC,,0.00,0.0,WeatherDisplay:10.37,2013-02-14 09:49:00,
2013-02-14 03:55:00,27.7,23.8,29.69,East,89,0.0,0.0,85,0.00,OVC,,0.00,0.0,WeatherDisplay:10.37,2013-02-14 09:55:00,
2013-02-14 04:00:00,27.7,23.8,29.69,East,89,0.0,0.1,85,0.00,OVC,,0.00,0.0,WeatherDisplay:10.37,2013-02-14 10:00:00,
2013-02-14 04:05:00,27.7,24.1,29.69,NNE,24,0.0,0.0,86,0.00,OVC,,0.00,0.0,WeatherDisplay:10.37,2013-02-14 10:05:00,
2013-02-14 04:10:00,27.8,23.9,29.69,NNE,21,0.0,0.5,85,0.00,OVC,,0.00,0.0,WeatherDisplay:10.37,2013-02-14 10:10:00,
2013-02-14 04:15:00,27.8,23.9,29.70,NNE,21,0.0,0.0,85,0.00,OVC,,0.00,0.0,WeatherDisplay:10.37,2013-02-14 10:15:00,
2013-02-14 04:20:00,27.8,23.9,29.70,NNE,21,0.0,0.0,85,0.00,OVC,,0.00,0.0,WeatherDisplay:10.37,2013-02-14 10:20:00,
2013-02-14 04:25:00,27.8,23.9,29.70,NNE,21,0.0,0.0,85,0.00,OVC,,0.00,0.0,WeatherDisplay:10.37,2013-02-14 10:25:00,
2013-02-14 04:30:00,27.8,23.9,29.70,NNE,24,0.0,0.0,85,0.00,OVC,,0.00,0.0,WeatherDisplay:10.37,2013-02-14 10:30:00,
2013-02-14 04:35:00,27.8,23.9,29.71,NNE,24,0.0,0.0,85,0.00,OVC,,0.00,0.0,WeatherDisplay:10.37,2013-02-14 10:35:00,
2013-02-14 04:40:00,27.9,24.0,29.71,NNE,24,0.0,0.0,85,0.00,OVC,,0.00,0.0,WeatherDisplay:10.37,2013-02-14 10:40:00,
2013-02-14 04:45:00,27.9,24.0,29.71,NNE,24,0.0,0.0,85,0.00,OVC,,0.00,0.0,WeatherDisplay:10.37,2013-02-14 10:45:00,
2013-02-14 04:50:00,27.9,24.0,29.71,NNE,24,2.3,0.0,85,0.00,OVC,,0.00,0.0,WeatherDisplay:10.37,2013-02-14 10:50:00,
2013-02-14 04:55:00,27.9,24.0,29.71,NNE,24,0.0,0.0,85,0.00,OVC,,0.00,0.0,WeatherDisplay:10.37,2013-02-14 10:55:00,
2013-02-14 05:00:00,27.9,24.0,29.72,NNE,17,1.1,1.1,85,0.00,OVC,,0.00,0.0,WeatherDisplay:10.37,2013-02-14 11:00:00,
2013-02-14 05:05:00,27.9,24.0,29.72,NNE,19,0.0,0.0,85,0.00,CLR,,0.00,0.0,WeatherDisplay:10.37,2013-02-14 11:05:00,
2013-02-14 05:10:00,27.8,23.9,29.72,North,5,1.1,0.0,85,0.00,CLR,,0.00,0.0,WeatherDisplay:10.37,2013-02-14 11:10:00,
2013-02-14 05:15:00,27.7,23.8,29.72,North,5,1.1,0.0,85,0.00,CLR,,0.00,0.0,WeatherDisplay:10.37,2013-02-14 11:15:00,
2013-02-14 05:20:00,27.5,23.6,29.72,North,5,0.0,0.0,85,0.00,CLR,,0.00,0.0,WeatherDisplay:10.37,2013-02-14 11:20:00,
2013-02-14 05:25:00,27.3,23.4,29.73,North,5,0.0,0.0,85,0.00,CLR,,0.00,0.0,WeatherDisplay:10.37,2013-02-14 11:25:00,
2013-02-14 05:30:00,27.2,23.3,29.72,North,5,0.0,0.0,85,0.00,CLR,,0.00,0.0,WeatherDisplay:10.37,2013-02-14 11:30:00,
2013-02-14 05:35:00,27.1,23.2,29.73,North,5,0.0,0.0,85,0.00,CLR,,0.00,0.0,WeatherDisplay:10.37,2013-02-14 11:35:00,
2013-02-14 05:40:00,27.0,23.4,29.73,North,5,0.0,0.0,86,0.00,CLR,,0.00,0.0,WeatherDisplay:10.37,2013-02-14 11:40:00,
2013-02-14 05:45:00,26.6,22.7,29.73,NNW,328,1.1,0.0,85,0.00,CLR,,0.00,0.0,WeatherDisplay:10.37,2013-02-14 11:45:00,
2013-02-14 05:50:00,26.4,22.8,29.73,NNW,336,0.0,0.0,86,0.00,CLR,,0.00,0.0,WeatherDisplay:10.37,2013-02-14 11:50:00,
2013-02-14 05:55:00,26.1,22.5,29.73,NNW,336,0.0,0.0,86,0.00,CLR,,0.00,0.0,WeatherDisplay:10.37,2013-02-14 11:55:00,
2013-02-14 06:00:00,26.1,22.8,29.73,NNW,336,0.0,0.0,87,0.00,CLR,,0.00,0.0,WeatherDisplay:10.37,2013-02-14 12:00:00,
2013-02-14 06:05:00,25.8,22.2,29.74,NNW,336,0.0,0.0,86,0.00,OVC,,0.00,0.0,WeatherDisplay:10.37,2013-02-14 12:05:00,
2013-02-14 06:10:00,25.6,22.3,29.74,NNW,336,0.0,0.0,87,0.00,OVC,,0.00,0.0,WeatherDisplay:10.37,2013-02-14 12:10:00,
2013-02-14 06:15:00,25.3,22.0,29.74,NNW,336,1.0,1.0,87,0.00,OVC,,0.00,0.0,WeatherDisplay:10.37,2013-02-14 12:15:00,
2013-02-14 06:20:00,25.0,21.9,29.74,NW,321,1.1,1.1,88,0.00,OVC,,0.00,0.0,WeatherDisplay:10.37,2013-02-14 12:20:00,
2013-02-14 06:25:00,24.9,21.8,29.75,NW,321,0.0,0.0,88,0.00,OVC,,0.00,0.0,WeatherDisplay:10.37,2013-02-14 12:25:00,
2013-02-14 06:30:00,24.8,21.8,29.75,NW,321,0.0,0.0,88,0.00,OVC,,0.00,0.0,WeatherDisplay:10.37,2013-02-14 12:30:00,
2013-02-14 06:35:00,24.9,22.1,29.75,NW,321,0.0,0.0,89,0.00,OVC,,0.00,0.0,WeatherDisplay:10.37,2013-02-14 12:35:00,
2013-02-14 06:40:00,25.0,22.2,29.75,West,278,3.5,3.5,89,0.00,OVC,,0.00,0.0,WeatherDisplay:10.37,2013-02-14 12:40:00,
2013-02-14 06:45:00,25.2,22.7,29.75,WNW,291,1.1,0.0,90,0.00,OVC,,0.00,0.0,WeatherDisplay:10.37,2013-02-14 12:45:00,
2013-02-14 06:50:00,25.4,22.9,29.76,NW,320,1.1,1.1,90,0.00,OVC,,0.00,0.0,WeatherDisplay:10.37,2013-02-14 12:50:00,
2013-02-14 06:55:00,25.6,23.1,29.76,NW,319,0.0,0.0,90,0.00,OVC,,0.00,0.0,WeatherDisplay:10.37,2013-02-14 12:55:00,
2013-02-14 07:00:00,25.9,23.1,29.76,NW,319,0.0,0.0,89,0.00,OVC,,0.00,0.0,WeatherDisplay:10.37,2013-02-14 13:00:00,
2013-02-14 07:05:00,26.1,23.3,29.76,NW,318,0.0,0.0,89,0.00,OVC,,0.00,0.0,WeatherDisplay:10.37,2013-02-14 13:05:00,
2013-02-14 07:10:00,26.3,23.5,29.76,NW,318,0.0,0.0,89,0.00,OVC,,0.00,0.0,WeatherDisplay:10.37,2013-02-14 13:10:00,
2013-02-14 07:15:00,26.4,23.6,29.76,WNW,296,0.0,0.0,89,0.00,OVC,,0.00,0.0,WeatherDisplay:10.37,2013-02-14 13:15:00,
2013-02-14 07:20:00,26.5,23.7,29.76,WNW,296,0.0,0.0,89,0.00,OVC,,0.00,0.0,WeatherDisplay:10.37,2013-02-14 13:20:00,
2013-02-14 07:25:00,26.7,23.6,29.76,WNW,296,0.0,0.0,88,0.00,OVC,,0.00,0.0,WeatherDisplay:10.37,2013-02-14 13:25:00,
2013-02-14 07:30:00,26.9,23.8,29.77,WNW,296,0.0,0.0,88,0.00,OVC,,0.00,5.0,WeatherDisplay:10.37,2013-02-14 13:30:00,
2013-02-14 07:35:00,26.8,23.7,29.77,WNW,303,1.1,0.0,88,0.00,OVC,,0.00,0.0,WeatherDisplay:10.37,2013-02-14 13:35:00,
2013-02-14 07:40:00,26.8,23.7,29.77,North,9,0.0,0.0,88,0.00,OVC,,0.00,5.0,WeatherDisplay:10.37,2013-02-14 13:40:00,
2013-02-14 07:45:00,26.9,23.8,29.78,North,9,0.0,0.0,88,0.00,OVC,,0.00,5.0,WeatherDisplay:10.37,2013-02-14 13:45:00,
2013-02-14 07:50:00,27.0,23.9,29.78,North,355,0.0,0.0,88,0.00,OVC,,0.00,0.0,WeatherDisplay:10.37,2013-02-14 13:50:00,
2013-02-14 07:55:00,27.0,23.9,29.78,NNW,348,1.1,1.1,88,0.00,OVC,,0.00,0.0,WeatherDisplay:10.37,2013-02-14 13:55:00,
2013-02-14 08:00:00,26.9,23.8,29.78,North,5,1.1,1.1,88,0.00,OVC,,0.00,0.0,WeatherDisplay:10.37,2013-02-14 14:00:00,
2013-02-14 08:05:00,26.9,23.8,29.78,NNW,342,0.0,0.3,88,0.00,OVC,,0.00,5.0,WeatherDisplay:10.37,2013-02-14 14:05:00,
2013-02-14 08:10:00,26.9,23.8,29.78,NW,321,1.1,1.1,88,0.00,OVC,,0.00,9.0,WeatherDisplay:10.37,2013-02-14 14:10:00,
2013-02-14 08:15:00,26.9,24.1,29.79,NNW,331,1.1,1.1,89,0.00,OVC,,0.00,16.0,WeatherDisplay:10.37,2013-02-14 14:15:00,
2013-02-14 08:20:00,26.9,23.8,29.79,NNE,22,3.5,3.5,88,0.00,OVC,,0.00,23.0,WeatherDisplay:10.37,2013-02-14 14:20:00,
2013-02-14 08:25:00,27.0,24.2,29.79,WNW,302,2.3,2.3,89,0.00,OVC,,0.00,32.0,WeatherDisplay:10.37,2013-02-14 14:25:00,
2013-02-14 08:30:00,27.2,24.1,29.79,North,355,1.1,1.1,88,0.00,OVC,,0.00,40.0,WeatherDisplay:10.37,2013-02-14 14:30:00,
2013-02-14 08:36:00,27.3,24.5,29.79,NNW,337,1.1,0.0,89,0.00,OVC,,0.00,46.0,WeatherDisplay:10.37,2013-02-14 14:36:00,
2013-02-14 08:41:00,27.5,24.7,29.79,West,265,2.3,2.3,89,0.00,OVC,,0.00,47.0,WeatherDisplay:10.37,2013-02-14 14:41:00,
2013-02-14 08:46:00,27.6,24.8,29.80,WNW,291,3.5,0.0,89,0.00,OVC,,0.00,40.0,WeatherDisplay:10.37,2013-02-14 14:46:00,
2013-02-14 08:51:00,27.9,24.8,29.80,NNE,13,0.0,0.1,88,0.00,OVC,,0.00,53.0,WeatherDisplay:10.37,2013-02-14 14:51:00,
2013-02-14 08:56:00,28.1,25.0,29.80,NNE,33,3.5,3.5,88,0.00,OVC,,0.00,62.0,WeatherDisplay:10.37,2013-02-14 14:56:00,
2013-02-14 09:01:00,28.4,25.0,29.80,North,351,1.1,1.1,87,0.00,OVC,,0.00,65.0,WeatherDisplay:10.37,2013-02-14 15:01:00,
2013-02-14 09:06:00,28.5,25.1,29.80,WSW,254,2.3,2.3,87,0.00,OVC,,0.00,63.0,WeatherDisplay:10.37,2013-02-14 15:06:00,
2013-02-14 09:11:00,28.6,24.9,29.80,NE,45,3.5,3.5,86,0.00,OVC,,0.00,72.0,WeatherDisplay:10.37,2013-02-14 15:11:00,
2013-02-14 09:16:00,28.8,25.1,29.80,NNE,21,0.0,0.0,86,0.00,OVC,,0.00,83.0,WeatherDisplay:10.37,2013-02-14 15:16:00,
2013-02-14 09:21:00,29.0,25.1,29.80,NNE,21,1.1,0.0,85,0.00,OVC,,0.00,90.0,WeatherDisplay:10.37,2013-02-14 15:21:00,
2013-02-14 09:26:00,29.2,25.0,29.81,NNE,13,1.1,1.1,84,0.00,OVC,,0.00,98.0,WeatherDisplay:10.37,2013-02-14 15:26:00,
2013-02-14 09:31:00,29.4,24.9,29.81,NW,309,2.0,2.0,83,0.00,OVC,,0.00,105.0,WeatherDisplay:10.37,2013-02-14 15:31:00,
2013-02-14 09:36:00,29.7,24.9,29.81,NW,309,2.3,2.3,82,0.00,OVC,,0.00,104.0,WeatherDisplay:10.37,2013-02-14 15:36:00,
2013-02-14 09:41:00,29.7,24.9,29.81,WSW,252,3.5,3.5,82,0.00,OVC,,0.00,104.0,WeatherDisplay:10.37,2013-02-14 15:41:00,
2013-02-14 09:46:00,29.8,24.7,29.81,NNE,14,1.1,1.1,81,0.00,OVC,,0.00,100.0,WeatherDisplay:10.37,2013-02-14 15:46:00,
2013-02-14 09:51:00,29.9,24.8,29.81,SSE,157,2.3,2.3,81,0.00,OVC,,0.00,123.0,WeatherDisplay:10.37,2013-02-14 15:51:00,
2013-02-14 09:56:00,29.9,24.5,29.81,West,271,1.1,1.1,80,0.00,OVC,,0.00,113.0,WeatherDisplay:10.37,2013-02-14 15:56:00,
2013-02-14 10:01:00,29.9,24.5,29.81,ENE,74,0.0,0.0,80,0.00,OVC,,0.00,83.0,WeatherDisplay:10.37,2013-02-14 16:01:00,
2013-02-14 10:06:00,30.1,24.1,29.81,ENE,61,1.1,1.1,78,0.00,OVC,,0.00,95.0,WeatherDisplay:10.37,2013-02-14 16:06:00,
2013-02-14 10:11:00,30.3,24.0,29.82,South,183,2.0,2.0,77,0.00,OVC,,0.00,134.0,WeatherDisplay:10.37,2013-02-14 16:11:00,
2013-02-14 10:16:00,30.6,23.9,29.82,NNE,17,1.1,1.1,76,0.00,OVC,,0.00,160.0,WeatherDisplay:10.37,2013-02-14 16:16:00,
2013-02-14 10:21:00,31.0,24.6,29.82,ENE,76,3.5,3.5,77,0.00,OVC,,0.00,193.0,WeatherDisplay:10.37,2013-02-14 16:21:00,
2013-02-14 10:26:00,31.2,23.9,29.82,NE,34,2.3,2.3,74,0.00,OVC,,0.00,193.0,WeatherDisplay:10.37,2013-02-14 16:26:00,
2013-02-14 10:31:00,31.4,24.1,29.82,North,355,2.3,2.3,74,0.00,OVC,,0.00,149.0,WeatherDisplay:10.37,2013-02-14 16:31:00,
2013-02-14 10:36:00,31.5,23.8,29.82,West,279,1.1,0.0,73,0.00,OVC,,0.00,113.0,WeatherDisplay:10.37,2013-02-14 16:36:00,
2013-02-14 10:41:00,31.4,23.4,29.82,NE,55,2.0,2.0,72,0.00,OVC,,0.00,77.0,WeatherDisplay:10.37,2013-02-14 16:41:00,
2013-02-14 10:46:00,31.1,23.5,29.82,North,360,0.0,0.0,73,0.00,OVC,,0.00,65.0,WeatherDisplay:10.37,2013-02-14 16:46:00,
2013-02-14 10:51:00,30.9,23.3,29.82,NW,322,2.3,2.3,73,0.00,OVC,,0.00,76.0,WeatherDisplay:10.37,2013-02-14 16:51:00,
2013-02-14 10:56:00,30.8,23.8,29.83,WSW,258,2.3,2.3,75,0.00,OVC,,0.00,102.0,WeatherDisplay:10.37,2013-02-14 16:56:00,
2013-02-14 11:01:00,30.9,24.2,29.83,NNE,33,1.1,1.1,76,0.00,OVC,,0.00,135.0,WeatherDisplay:10.37,2013-02-14 17:01:00,
2013-02-14 11:06:00,31.0,24.3,29.83,ENE,71,5.0,5.0,76,0.00,OVC,,0.00,118.0,WeatherDisplay:10.37,2013-02-14 17:06:00,
2013-02-14 11:11:00,30.9,24.2,29.83,WNW,285,2.3,2.3,76,0.00,OVC,,0.00,114.0,WeatherDisplay:10.37,2013-02-14 17:11:00,
2013-02-14 11:16:00,30.7,24.3,29.83,NW,315,1.1,1.1,77,0.00,OVC,,0.00,174.0,WeatherDisplay:10.37,2013-02-14 17:16:00,
2013-02-14 11:21:00,30.7,24.7,29.83,WSW,258,3.5,3.5,78,0.00,OVC,,0.00,141.0,WeatherDisplay:10.37,2013-02-14 17:21:00,
2013-02-14 11:26:00,30.8,25.1,29.83,West,267,4.0,4.0,79,0.00,OVC,,0.00,114.0,WeatherDisplay:10.37,2013-02-14 17:26:00,
2013-02-14 11:31:00,30.9,24.5,29.84,NNW,335,1.1,1.1,77,0.00,OVC,,0.00,100.0,WeatherDisplay:10.37,2013-02-14 17:31:00,
2013-02-14 11:36:00,31.0,24.6,29.83,NNE,26,3.5,3.5,77,0.00,OVC,,0.00,102.0,WeatherDisplay:10.37,2013-02-14 17:36:00,
2013-02-14 11:41:00,30.9,23.9,29.84,West,259,3.5,3.5,75,0.00,OVC,,0.00,91.0,WeatherDisplay:10.37,2013-02-14 17:41:00,
2013-02-14 11:46:00,30.8,24.4,29.84,North,10,1.1,1.1,77,0.00,OVC,,0.00,90.0,WeatherDisplay:10.37,2013-02-14 17:46:00,
2013-02-14 11:51:00,30.3,24.6,29.84,NNW,333,5.8,5.8,79,0.00,OVC,,0.00,90.0,WeatherDisplay:10.37,2013-02-14 17:51:00,
2013-02-14 11:56:00,30.0,24.9,29.84,NNW,335,3.5,3.5,81,0.00,OVC,,0.00,95.0,WeatherDisplay:10.37,2013-02-14 17:56:00,
2013-02-14 12:01:00,29.6,24.8,29.84,North,355,2.3,2.3,82,0.00,-SN,,0.00,148.0,WeatherDisplay:10.37,2013-02-14 18:01:00,
2013-02-14 12:06:00,29.8,24.7,29.84,WNW,298,3.5,3.5,81,0.00,-SN,,0.00,204.0,WeatherDisplay:10.37,2013-02-14 18:06:00,
2013-02-14 12:11:00,30.4,24.7,29.84,NNE,18,3.5,3.5,79,0.00,-SN,,0.00,237.0,WeatherDisplay:10.37,2013-02-14 18:11:00,
2013-02-14 12:16:00,31.1,25.3,29.84,NNE,22,2.3,2.3,79,0.00,-SN,,0.00,301.0,WeatherDisplay:10.37,2013-02-14 18:16:00,
2013-02-14 12:21:00,31.7,25.6,29.84,NNW,333,1.1,1.1,78,0.00,-SN,,0.00,132.0,WeatherDisplay:10.37,2013-02-14 18:21:00,
2013-02-14 12:26:00,31.7,25.3,29.84,SSE,151,3.5,3.5,77,0.00,-SN,,0.00,42.0,WeatherDisplay:10.37,2013-02-14 18:26:00,
2013-02-14 12:31:00,31.4,25.3,29.84,West,277,4.0,4.0,78,0.00,-SN,,0.00,30.0,WeatherDisplay:10.37,2013-02-14 18:31:00,
2013-02-14 12:36:00,30.6,25.8,29.85,SE,126,1.1,1.1,82,0.00,-SN,,0.00,35.0,WeatherDisplay:10.37,2013-02-14 18:36:00,
2013-02-14 12:41:00,30.0,25.8,29.84,SW,232,0.0,0.1,84,0.00,-SN,,0.00,60.0,WeatherDisplay:10.37,2013-02-14 18:41:00,
2013-02-14 12:46:00,29.6,25.6,29.85,North,5,1.1,0.0,85,0.00,-SN,,0.00,84.0,WeatherDisplay:10.37,2013-02-14 18:46:00,
2013-02-14 12:51:00,29.7,25.7,29.84,North,9,0.0,0.0,85,0.00,-SN,,0.00,141.0,WeatherDisplay:10.37,2013-02-14 18:51:00,
2013-02-14 12:56:00,29.9,25.7,29.84,NE,44,1.1,1.1,84,0.00,-SN,,0.00,158.0,WeatherDisplay:10.37,2013-02-14 18:56:00,